Lexington Weather

Lexington, Massachusetts, USA

41°F
11/27/2020 3:24am 
  • Lexington Conditions: Fog, Overcast
  • Temperature: 40.8°F / 4.9°CWarmer 1.1°F than last hour.
  • Dew Point: 40.1°FIncreased 1.1°Fsince last hour.
  • Relative Humidity: 97
  • Wind: Calm, 10-min avg: Calm, gust: None
  • Barometer: 29.97 in Steady
  • Visibility: ¼ mile
  • Rain Today: 0.00 in
  •   
Southeast Middlesex County - Special Weather Statement
 - SEE ALL NEARBY ALERTS -

Regional Weather Roundup
for Boston / Norton, MA

        
000
ASUS41 KBOX 221904
RWRBOX

REGIONAL WEATHER ROUNDUP
NATIONAL WEATHER SERVICE BOSTON/NORTON MA
200 PM EST SUN NOV 22 2020

NOTE:  "FAIR" INDICATES FEW OR NO CLOUDS BELOW 12,000 FEET WITH NO 
SIGNIFICANT WEATHER AND/OR OBSTRUCTIONS TO VISIBILITY.

MAZALL-222000-
EASTERN MASSACHUSETTS
  
CITY           SKY/WX    TMP DP  RH WIND       PRES   REMARKS
BOSTON         CLOUDY    43  34  70 NE12      30.51F                  
BEVERLY        CLOUDY    43  30  60 NE6       30.51S                  
LAWRENCE       CLOUDY    41  29  62 NE9       30.53F                  
BEDFORD        CLOUDY    42  30  62 NE9       30.49F                  
BLUE HILL        N/A     41  34  76 E9        30.46F                  
NORWOOD        CLOUDY    46  34  62 NE7       30.49F                  
MARSHFIELD     CLOUDY    46  37  71 E13       30.49S                  
PLYMOUTH       CLOUDY    46  37  71 NE8       30.47F                  
TAUNTON        CLOUDY    48  37  65 NE6       30.47F                  
NEW BEDFORD    CLOUDY    48  39  71 NE9       30.46S                  
$$

MAZALL-222000-
CAPE COD AND THE ISLANDS
  
CITY           SKY/WX    TMP DP  RH WIND       PRES   REMARKS
FALMOUTH       CLOUDY    48  37  66 NE14      30.47F                  
HYANNIS        CLOUDY    48  38  68 E7        30.45F                  
CHATHAM        CLOUDY    48  38  68 E10       30.48F                  
PROVINCETOWN   CLOUDY    45  36  70 E13       30.50S                  
NANTUCKET      CLOUDY    52  43  71 E12G20    30.45F                  
MARTHAS VNYRD  CLOUDY    50  41  71 E14       30.45S                  
$$
 
MAZALL-222000-
CENTRAL AND WESTERN MASSACHUSETTS
  
CITY           SKY/WX    TMP DP  RH WIND       PRES   REMARKS
WORCESTER      CLOUDY    38  29  70 NE8       30.45F                  
FITCHBURG      CLOUDY    39  27  62 NE5       30.50F                  
ORANGE         CLOUDY    38  28  67 E8        30.47F                  
SPRINGFIELD    LGT RAIN  43  31  62 E6        30.43F                  
WESTFIELD      CLOUDY    41  29  62 N6        30.44F                  
NORTH ADAMS    CLOUDY    38  29  70 E14       30.42F WCI  30          
PITTSFIELD     CLOUDY    37  29  72 E7        30.37F WCI  32          
$$
 
RIZALL-222000-
RHODE ISLAND
  
CITY           SKY/WX    TMP DP  RH WIND       PRES   REMARKS
PROVIDENCE     CLOUDY    48  36  63 E9        30.46F                  
NEWPORT        CLOUDY    47  38  71 E12       30.45F                  
BLOCK ISLAND   CLOUDY    49  41  74 E16G23    30.43F                  
SMITHFIELD     CLOUDY    44  37  76 E7        30.46F                  
WESTERLY       CLOUDY    49  39  68 NE9       30.42F                  
$$
 
CTZALL-222000-
CONNECTICUT
  
CITY           SKY/WX    TMP DP  RH WIND       PRES   REMARKS
BRADLEY INTL   CLOUDY    44  32  62 N3        30.43F                  
HARTFORD       CLOUDY    45  31  58 N6        30.43F                  
BRIDGEPORT     CLOUDY    48  36  61 NE9       30.39F                  
DANBURY        CLOUDY    43  32  65 E8        30.39F                  
GROTON         CLOUDY    49  39  68 E12       30.42F                  
NEW HAVEN      CLOUDY    50  37  61 NE8       30.40F                  
CHESTER        CLOUDY    46  37  71 E10       30.40F                  
MERIDEN        NOT AVBL                                               
WILLIMANTIC    CLOUDY    46  34  62 E7        30.44F                  
OXFORD         CLOUDY    41  31  67 NE8       30.39F                  
$$

MEZ002-015-021-024-NHZ003-005-008-011-012-014-VTZ005-008-222000-
NORTHERN NEW ENGLAND
  
CITY           SKY/WX    TMP DP  RH WIND       PRES   REMARKS
PORTLAND ME    CLOUDY    38  30  73 E8        30.56S                  
BANGOR ME      PTSUNNY   36  15  42 S5        30.57S                  
CONCORD NH     CLOUDY    37  22  54 CALM      30.51F                  
MANCHESTER NH  CLOUDY    40  25  55 N5        30.50F                  
NASHUA NH      CLOUDY    40  28  62 E5        30.52F                  
PORTSMOUTH NH  CLOUDY    40  26  58 NE7       30.52                   
JAFFREY NH     CLOUDY    36  25  64 CALM      30.46F                  
KEENE NH       CLOUDY    38  27  64 VRB5      30.48F                  
BURLINGTON VT  NOT AVBL                                               
MT. WASHINGTON CLOUDY    19   9  63 SW25        N/A  WCI   2          
$$

NYZ052-076-222000-
EASTERN NEW YORK
  
CITY           SKY/WX    TMP DP  RH WIND       PRES   REMARKS
ALBANY         NOT AVBL                                               
NEW YORK CITY  CLOUDY    50  40  68 NE13      30.36F                  
$$
 
ANZALL-222000-
MARINE OBSERVATIONS
  
STATION/POSITION TIME  TEMP    WIND        PRES    VSBY  WAVE
                       AIR SEA DIR/SP/G                  HT/PER
                 (UTC) (F)     (DEG/KT/KT) (MB)    (MI)  (FT/S)
BOSTON BUOY      1840   44 51   80/ 12/ 16 1033.3F
BUZZARDS BAY     1800           70/ 17/ 18 1032.3F
NANTUCKET SOUND  1840      52   70/ 16/ 19   N/A
MASS BAY-STELLWA NOT AVBL
ISLE OF SHOALS   1800   40      80/  8/  9 1033.6F
S OF BLOCK IS    1826      58                N/A           5/ 5
$$

......................KEY.........................
  SKY/WX - SKY CONDITION/PRESENT WEATHER
  TMP    - TEMPERATURE IN FAHRENHEIT
  DWPT   - DEWPOINT IN FAHRENHEIT
  RH     - RELATIVE HUMIDITY IN PERCENT
  WIND   - DIRECTION AND SPEED IN MPH
  PRES   - MEAN SEA LEVEL PRESSURE IN INCHES OF HG
  WCI    - WIND CHILL INDEX
  VSB    - VISIBILITY IN MILES
  HX     - HEAT INDEX
  TC     - TEMPERATURE IN CELSIUS
  VRB    - VARIABLE WIND DIRECTION
  N/A    - NOT AVAILABLE
  
      

Other recent Regional Weather Roundups

Fri Nov 27, 12:04am

Thu Nov 26, 11:04pm

Thu Nov 26, 10:04pm

Thu Nov 26, 9:04pm

Thu Nov 26, 8:04pm

Thu Nov 26, 7:04pm

Thu Nov 26, 6:04pm

Thu Nov 26, 5:04pm

Thu Nov 26, 4:04pm

Thu Nov 26, 2:04pm

Thu Nov 26, 1:04pm

Thu Nov 26, 12:04pm

Thu Nov 26, 11:04am

Thu Nov 26, 10:04am

Thu Nov 26, 9:04am

Thu Nov 26, 8:04am

Thu Nov 26, 7:04am

Thu Nov 26, 6:04am

Thu Nov 26, 5:04am

Thu Nov 26, 4:04am

Thu Nov 26, 3:04am

Thu Nov 26, 2:04am

Thu Nov 26, 1:04am

Thu Nov 26, 12:04am

Wed Nov 25, 11:04pm

Wed Nov 25, 10:04pm

Wed Nov 25, 9:04pm

Wed Nov 25, 8:04pm

Wed Nov 25, 7:04pm

Wed Nov 25, 6:04pm

Wed Nov 25, 5:04pm

Wed Nov 25, 4:04pm

Wed Nov 25, 3:05pm

Wed Nov 25, 2:04pm

Wed Nov 25, 1:04pm

Wed Nov 25, 12:05pm

Wed Nov 25, 11:04am

Wed Nov 25, 10:04am

Wed Nov 25, 9:04am

Wed Nov 25, 8:04am

Wed Nov 25, 7:04am

Wed Nov 25, 6:04am

Wed Nov 25, 5:04am

Wed Nov 25, 4:04am

Wed Nov 25, 3:04am

Wed Nov 25, 2:04am

Wed Nov 25, 1:04am

Wed Nov 25, 12:04am

Tue Nov 24, 11:04pm

Tue Nov 24, 10:04pm

Tue Nov 24, 9:04pm

Tue Nov 24, 8:04pm

Tue Nov 24, 7:04pm

Tue Nov 24, 6:04pm

Tue Nov 24, 5:04pm

Tue Nov 24, 4:05pm

Tue Nov 24, 3:05pm

Tue Nov 24, 2:05pm

Tue Nov 24, 1:05pm

Tue Nov 24, 12:04pm

Tue Nov 24, 11:04am

Tue Nov 24, 10:04am

Tue Nov 24, 9:04am

Tue Nov 24, 8:04am

Tue Nov 24, 7:04am

Tue Nov 24, 6:04am

Tue Nov 24, 5:04am

Tue Nov 24, 4:05am

Tue Nov 24, 3:04am

Tue Nov 24, 2:04am

Tue Nov 24, 1:04am

Tue Nov 24, 12:05am

Mon Nov 23, 11:04pm

Mon Nov 23, 10:04pm

Mon Nov 23, 9:04pm

Mon Nov 23, 8:04pm

Mon Nov 23, 7:04pm

Mon Nov 23, 6:04pm

Mon Nov 23, 5:04pm

Mon Nov 23, 4:04pm

Mon Nov 23, 3:04pm

Mon Nov 23, 2:04pm

Mon Nov 23, 1:04pm

Mon Nov 23, 12:04pm

Mon Nov 23, 11:04am

Mon Nov 23, 10:04am

Mon Nov 23, 9:04am

Mon Nov 23, 8:05am

Mon Nov 23, 7:04am

Mon Nov 23, 6:04am

Mon Nov 23, 5:04am

Mon Nov 23, 4:04am

Mon Nov 23, 3:04am

Mon Nov 23, 2:04am

Mon Nov 23, 1:04am

Mon Nov 23, 12:05am

Sun Nov 22, 11:04pm

Sun Nov 22, 10:04pm

Sun Nov 22, 9:04pm

Sun Nov 22, 8:05pm

Sun Nov 22, 7:04pm

Sun Nov 22, 6:04pm

Sun Nov 22, 5:04pm

Sun Nov 22, 4:04pm

Sun Nov 22, 3:04pm

Sun Nov 22, 1:05pm

Sun Nov 22, 12:04pm

Sun Nov 22, 11:04am

Sun Nov 22, 10:05am

Sun Nov 22, 9:04am

Sun Nov 22, 8:04am

Sun Nov 22, 7:04am

Sun Nov 22, 6:04am

Sun Nov 22, 5:04am

Sun Nov 22, 4:04am

Sun Nov 22, 3:04am

Sun Nov 22, 2:04am

Sun Nov 22, 1:04am

Sun Nov 22, 12:04am

Sat Nov 21, 11:04pm

Sat Nov 21, 10:04pm

Sat Nov 21, 9:04pm

Sat Nov 21, 8:05pm

Sat Nov 21, 7:04pm

Sat Nov 21, 6:04pm

Sat Nov 21, 5:04pm

Sat Nov 21, 4:05pm

Sat Nov 21, 3:04pm

Sat Nov 21, 2:04pm

Sat Nov 21, 1:05pm

Sat Nov 21, 12:04pm

Sat Nov 21, 11:04am

Sat Nov 21, 10:04am

Sat Nov 21, 9:04am

Sat Nov 21, 8:04am

Sat Nov 21, 7:04am

Sat Nov 21, 6:04am

Sat Nov 21, 5:04am

Sat Nov 21, 4:04am

Sat Nov 21, 3:04am

Sat Nov 21, 2:04am

Sat Nov 21, 1:04am

Sat Nov 21, 12:04am

Fri Nov 20, 11:04pm

Fri Nov 20, 10:04pm

Fri Nov 20, 9:04pm

Fri Nov 20, 8:04pm

Fri Nov 20, 7:04pm

Fri Nov 20, 6:04pm

Fri Nov 20, 5:04pm

Fri Nov 20, 4:05pm

Fri Nov 20, 3:05pm

Fri Nov 20, 2:04pm

Fri Nov 20, 1:04pm

Fri Nov 20, 12:04pm

Fri Nov 20, 11:04am

Fri Nov 20, 10:04am

Fri Nov 20, 9:04am

Fri Nov 20, 8:04am

Fri Nov 20, 7:04am

Fri Nov 20, 6:04am

Fri Nov 20, 5:04am

Fri Nov 20, 4:04am

Meta data:

ID: abff403e-b159-4b4f-b26b-e9980b63394c
Link: https://api.weather.gov/products/abff403e-b159-4b4f-b26b-e9980b63394c